Regional Weather Roundup
Issued by NWS Wakefield, VA

Home | Current Version | Previous Version | Graphics & Text | Print | Product List | Glossary On
Versions: 1 2 3 4 5 6 7 8 9 10 11 12 13 14 15 16 17 18 19 20 21 22 23 24 25 26 27 28 29 30 31 32 33 34 35 36 37 38 39 40 41 42 43 44 45 46 47 48 49 50
000
ASUS41 KAKQ 291615
RWRAKQ

REGIONAL WEATHER ROUNDUP
NATIONAL WEATHER SERVICE WAKEFIELD VA
1200 PM EDT MON JUN 29 2015

Note: "fair" indicates few or no clouds below 12,000 feet with no
significant weather and/or obstructions to visibility. * = Denotes
station may not report precipitation (e.g., rain,snow,etc.),
thunder or fog.

VAZ042-051-052>054-056-291700-
NORTHERN VIRGINIA

CITY           SKY/WX    TMP DP  RH WIND       PRES   REMARKS
WASH NATIONAL  MOSUNNY   81  56  42 W8        29.98S
DULLES         MOSUNNY   78  53  41 NW10      29.98S
FORT BELVOIR   SUNNY     79  52  39 VRB7      29.98S
QUANTICO       MOSUNNY   78  49  35 CALM      29.99F
FREDERICKSBRG* SUNNY     81  53  37 S8        29.98F
STAFFORD*      SUNNY     76  50  39 S3        30.03S
WARRENTON      SUNNY     78  54  42 CALM      29.99S
CULPEPER*      SUNNY     77  53  43 SW6       29.99F
MANASSAS*      NOT AVBL
LEESBURG*      SUNNY     77  57  50 W8        29.98F
WINCHESTER     SUNNY     77  55  47 S10       29.99S
FRONT ROYAL*   FAIR      73  55  53 CALM      29.98F
LURAY*         NOT AVBL
$$

VAZ048-049-060>072-079>083-291700-
CENTRAL AND SOUTH CENTRAL VIRGINIA

CITY           SKY/WX    TMP DP  RH WIND       PRES   REMARKS
RICHMOND       MOSUNNY   80  52  37 SE5       30.00F
CHESTERFIELD*  NOT AVBL
PETERSBURG*    SUNNY     79  57  45 CALM      30.01S
HANOVER        SUNNY     78  52  40 VRB6      30.02S
TAPPAHANNOCK*  SUNNY     78  45  31 CALM      30.01S
QUINTON*       FAIR      77  53  43 S3        30.00S
CHARLOTTSVILLE SUNNY     76  52  43 SW6       30.00S
GORDONSVILLE*  FAIR      77  55  47 CALM      30.00S
ORANGE*        SUNNY     79  52  38 SW3       30.01S
LOUISA*        SUNNY     79  54  41 SW6       30.00S
BUMPASS*       FAIR      77  52  41 S3        30.00F
FARMVILLE*     SUNNY     79  49  34 S5        30.00S
CREWE*         FAIR      78  55  45 CALM      30.01S
FORT PICKETT*  FAIR      77  54  43 E6        30.02S
CHASE CITY*    FAIR      80  55  41 E3        30.01F
CLARKSVILLE*   FAIR      79  59  50 E3        30.01S
SOUTH HILL*    MOSUNNY   78  59  52 CALM      30.07S
LAWRENCEVILLE* NOT AVBL
EMPORIA*       SUNNY     79  59  50 E3        30.02S
$$

VAZ088>098-291700-
SOUTHEAST VIRGINIA

CITY           SKY/WX    TMP DP  RH WIND       PRES   REMARKS
NORFOLK        SUNNY     78  54  43 NE7       30.01S
VIRGINIA BEACH MOSUNNY   83  58  42 NE7       30.00S
NORFOLK NAVAL  MOSUNNY   79  55  43 N8        30.02F
WEST POINT*    SUNNY     81  51  35 SW6       30.02S
SALUDA*        FAIR      76  55  47 CALM      30.00S
NEWPORT NEWS   SUNNY     79  54  41 N5        30.00F
LANGLEY AFB    SUNNY     77  54  43 NE6       29.99F
FORT EUSTIS    SUNNY     78  56  46 SW5       29.99S
WILLIAMSBURG*  SUNNY     82  59  44 SE5       30.01F
HR EXEC AP*    FAIR      81  57  44 E5        30.02F
FRANKLIN*      SUNNY     78  57  48 E3        30.01F
WAKEFIELD      SUNNY     79  55  43 VRB3      30.01S
$$

VAZ020-022-025-037-045-291700-
WEST CENTRAL AND SOUTHWEST VIRGINIA

CITY           SKY/WX    TMP DP  RH WIND       PRES   REMARKS
STAUNTON*      MOSUNNY   77  55  45 CALM      30.03F
WAYNESBORO*    FAIR      73  53  47 CALM      30.02F
HOT SPRINGS VA PTSUNNY   64  55  72 S5        30.08F
LYNCHBURG      SUNNY     76  52  43 CALM      30.02F
DANVILLE       SUNNY     79  57  46 MISG      30.01F
SOUTH BOSTON*  FAIR      80  57  46 MISG      30.01S
MARTINSVILLE   SUNNY     79  55  43 CALM      30.04F
ROANOKE        MOSUNNY   75  57  53 SE7       30.03F
BLACKSBURG     PTSUNNY   73  55  54 CALM      30.08S
DUBLIN*        MOSUNNY   74  55  51 S8        30.06F
MARION*        SUNNY     73  54  51 W6G12     30.08F
HILLSVILLE*    MOSUNNY   70  54  57 S8        30.09F
RICHLANDS*     FAIR      71  56  60 S8        30.05S
WISE*          PTSUNNY   70  50  49 S10       30.05S
ABINGDON*      CLOUDY    74  54  49 W8        30.05S
$$

MDZ021>025-VAZ099-100-291700-
SOUTHERN MARYLAND AND THE DELMARVA PENINSULA

CITY           SKY/WX    TMP DP  RH WIND       PRES   REMARKS
PATUXENT RIVER MOSUNNY   78  53  41 NW6       29.98F
BAY BRIDGE APT   N/A     77  54  44 W6        29.97S
LEONARDTOWN    SUNNY     77  50  38 W5        30.00
DOVER          SUNNY     76  58  54 W9        29.94S
GEORGETOWN     SUNNY     77  53  43 W12       29.98S
EASTON         SUNNY     77  59  53 NW9G21    30.01F
CAMBRIDGE      SUNNY     77  52  41 W7G16     29.98S
SALISBURY      SUNNY     77  55  46 W13G20    29.98S
OCEAN CITY     NOT AVBL
WALLOPS ISLAND MOSUNNY   77  57  50 VRB5      30.00S
ACCOMACK*      SUNNY     77  57  50 W8        30.00F
$$

NCZ012>017-030>032-291700-
NORTH CENTRAL AND EASTERN NORTH CAROLINA

CITY           SKY/WX    TMP DP  RH WIND       PRES   REMARKS
ROANOKE RAPIDS FAIR      79  61  53 E3        30.01S
RALEIGH        MOSUNNY   81  58  45 E8        30.00S
ELIZABETH CITY SUNNY     81  62  52 SE10      30.00S
AHOSKIE*       SUNNY     79  59  50 SE6       30.00F
EDENTON*         N/A     82  67  59 E8        30.00S
CURRITUCK*     SUNNY     79  56  44 NE5       30.02S
KILL DEVIL HLS SUNNY     84  62  46 E9        29.99S
MANTEO         SUNNY     80  64  57 E12       30.00S
CAPE HATTERAS  PTSUNNY   80  67  64 SE10      30.00R
TARBORO*         N/A     84  61  44 NE5       30.00S
GOLDSBORO      MOSUNNY   85  59  41 E8        29.96F
WASHINGTON     SUNNY     83  60  46 SE6       30.00R
GREENVILLE     SUNNY     84  61  45 SE6       30.00F
NEW BERN       PTSUNNY   84  68  58 VRB7      29.99F
WILMINGTON     SUNNY     83  68  60 E10       29.98S
$$

VAZ048-291700-
ELSEWHERE

CITY           SKY/WX    TMP DP  RH WIND       PRES   REMARKS
HARRISBURG PA  MOSUNNY   75  56  51 NW9       29.93F
BALTIMORE      MOSUNNY   77  57  50 NW12      29.96S
ANNAPOLIS      SUNNY     76  53  44 VRB6      29.96S
ANDREWS AFB    SUNNY     77  59  53 W8        29.98R
PHILADELPHIA   MOSUNNY   74  53  48 W10G17    29.94S
HENDERSON NC   SUNNY     79  55  42 E5        30.01S
GREENSBORO     MOSUNNY   80  52  37 NE7       30.01S
ROCKY MOUNT    PTSUNNY   85  63  47 E8        29.99F
$$

VAZ100-291700-
MARINE

STATION/POSITION TIME  TEMP    WIND        PRES    WAVE   SWELL
                       AIR SEA DIR/SP/G            HT/PER HT/PER
                 (UTC) (F)     (DEG/KT/KT) (MB)    (FT/S) (FT/S)
BRANDYWINE LGT   1500   71 72  290/ 12/ 16 1014.8S
CAPE MAY NJ      1500   71 77  280/ 11/ 13 1014.4S
LEWES DE         1500   72 71  300/  9/ 10 1014.6S
15NM E FENWICK I 1550   71 72              1015.1S   4/ 8
OCEAN-CITY-INLET 1500   73 73  280/  6/  8 1015.0F
WACHAPREAGUE VA  1500   79 77   CALM  /  5 1016.0F
GOOSES REEF MD   1600   76 77  290/  6/  8 1016.1F
COVE POINT MD    1500   74     300/  6/ 10 1016.1S
SOLOMONS ISLAND  1500      79                N/A
BISHOPS HEAD MD  1500   73     280/  7/ 12 1015.4R
PINEY POINT MD   1500          330/  7/  8   N/A
CAMBRIDGE MD     1500   74 79  310/  8/ 11 1015.1S
LEWISETTA VA     1500   76 78   CALM  /  2 1015.4F
RAPPAHANNOCK LGT 1500          330/  3/  5 1016.6S
STINGRAY PT      1500   75 80   10/  4/  8 1016.2F   1/ 3
YORK RVR RNG VA  1500   77      CALM  /  1 1015.7F
YORKTOWN VA      1500   76 79  160/  2/  4 1015.9F
JAMESTOWN VA     1600   76 84  150/  6/ 10   N/A
DOMINION TERM VA 1500   76     110/  7/  9 1016.2F
KIPTOPEKE VA     1500      82  320/ 10/ 11   N/A
CHES BAY BRIDGE  1500   74 77  360/  5/  8 1016.0S
CAPE HENRY VA    1500   75     340/  4/  6 1014.7F
CHESAPEAKE LGHT  1500   74     340/  6/  6 1017.0F
WILLOUBY STN VA  1500   75      60/  5/  6 1017.2F
CAPE HENRY BUOY  1528      77                N/A     3/ 8
1ST LANDING BUOY 1600      78              1016.0S   1/ 3
CAPE CHARLES BUO 1526      77                N/A     2/ 8   2/ 8
OFFSHORE WE BUOY 1511      77                N/A     4/ 8   3/ 8
64NM E OF VA BCH 1550   76 76  120/  2/  4 1015.9R   4/ 7   5/ 7
DUCK PIER NC     1500   77 70   70/  8/  9 1015.3S
44100 DUCK FRF   1524      76                N/A     3/ 8
44056 DUCK FRF   1511      75                N/A     2/ 8
OREGON INLET NC  1500   77 74   50/  7/ 10 1015.7F
HATTERAS NC      1500   79 80  130/  8/ 12 1015.3F
DIAMOND SHLS NC  1550   78 81  120/ 10/ 12 1015.7R   4/ 7   3/ 7
CAPE LOOKOUT NC  1600   78     130/ 10/ 11 1015.3R
$$



USA.gov is the U.S. government's official web portal to all federal, state and local government web resources and services.